Showing default

IRIDIUM 138, 43071

Orbit data source: Space-Track

IRIDIUM 138, 43071 is a payload satellite owned by Iridium (US) in LEO that was launched on Sat, 23 Dec 2017 UTC via an FALCON 9 launch vehicle from the Air Force Western Test Range (AFWTR). Payload-class satellites include a variety of spacecraft equipped with specific instruments for various scientific and technological missions. These include communications satellites like Starlink; space stations such as the ISS; scientific satellites like the Hubble; Earth observation satellites from companies like Planet Labs, Umbra, and HawkEye 360; GPS; miniature CubeSats for education and research; and military/defense satellites.

Loading next visibility...
Identifier
43071, 2017-083B
Orbit
LEO
Country
Flag of USUS
Related business
Manufacturer
OATK SSG Gilbert
Mission
Operational Commercial Communications
Bus & Motor
ELITEBUS, Unknown motor
Mass
860 kg wet, 700 kg dry
Launch date (UTC)
2017-12-23 (8 years ago)
Launch vehicle
FALCON 9
Launch site
Air Force Western Test Range (AFWTR)
Object type
Payload
Rocket body
Debris
Shape & HBR
Trap Box + 2 Pan, 4.7 m
Radar Cross Section
14.423 m², Large (>1 m²)

Expand to show TLE details & history
Last TLE update: 14 hours ago

TLE from 14 hours ago
0 IRIDIUM 138
1 43071U 17083B   25259.19596111  .00000132  00000-0  39912-4 0  9994
2 43071  86.3896  76.2099 0001861 102.4354 257.7050 14.34217289404864
Epoch: 2025-09-16T04:42Z
TLE epoch observation values (Epoch: 2025-09-16T04:42:11.039Z)
Latitude
-0.00006°
Longitude
10.27416°
Altitude
781.003 km
Speed
7.463 km/s
True Right ascension
05h 04m 50s
True Declination
0° 00' 00"
Sunlit
Object was in daylight at epoch
Visualization orbit readout
Latitude
Unknown
Longitude
Unknown
Altitude
Unknown
Speed
Unknown
Apparent Right ascension
Unknown
Apparent Declination
Unknown
Sunlit
N/A
Visualization observer readout
Local Sidereal Time
11:07:16
Azimuth
Unknown
Elevation
Unknown
Doppler factor
Unknown
Orbital elements
Apogee altitude
775.964 km
Perigee altitude
773.302 km
Semi-major axis
7,152.77 km
Eccentricity
0.00019
Inclination
86.3896°
RAAN
76.2099°
Arg. of periapsis
102.4354°
True anomaly
257.68416°
Mean anomaly
257.705°
Eccentric anomaly
257.69458°
Mean motion
3.58783 °/min
Orbital period
100.34 mins
BSTAR
0.000039912
Loading maneuver chart data...
Computing Atmospheric mass density...
Loading historical data...
Loading historical data...
Loading historical data...
Loading historical data...
Loading historical data...
Loading historical data...
Loading historical data...

Documentation

Showing up to 5 results
|